GORIZONT 15 [-]

Last updated on Jan. 22, 2020, 4:37 a.m. UTC

1 19017U 88028A   20021.44155832 -.00000057  00000-0  00000+0 0  9993
2 19017  15.4159 349.4564 0031662 129.4478  44.9111  0.97827154 96607
UTC
Height (km)
Latitude
Longitude
Inclination
Orbital Period
UTC large
Height (km)
Speed (km/s)
/
Latitude / Longitude
Inclination (degrees)
Orbital Period (minutes)
Azimuth
Elevation
Range (km)
Doppler Factor
iOS Compass Heading
iOS Angle

Next 30 passes for location: Hong Kong

Rise time Rise Azimuth (degrees) Set time Set Azimuth (degrees) Duration Max altitude (degrees)

No matching passes for this satellites